This demonstration page uses our WeatherBlox Daily Observations layout. Learn more.

Left ArrowRight Arrow

Hourly Observations for June 28, 2017

Temp ( °F °C ) Dew Point ( °F °C ) Humidity (%) Winds ( mph kmh ) Pressure ( in mb ) Visibility ( mi km ) Precip ( " mm )
12:52 am 00:52 Clear 70 21.1 64 17.8 82 82 SSE 15 24 29.97 1015 10 16 0.00 0.00
1:52 am 01:52 Clear 69 20.6 64 17.8 84 84 SSE 15 24 29.94 1014 10 16 0.00 0.00
2:52 am 02:52 Clear 69 20.6 63 17.2 81 81 S 13 20 29.95 1014 10 16 0.00 0.00
3:52 am 03:52 Clear 68 20 63 17.2 84 84 S 12 19 29.93 1014 10 16 0.00 0.00
4:52 am 04:52 Clear 67 19.4 63 17.2 87 87 SSE 14 22 29.94 1014 10 16 0.00 0.00
5:52 am 05:52 Clear 66 18.9 63 17.2 90 90 SSE 13 20 29.94 1014 10 16 0.00 0.00
6:52 am 06:52 Sunny 67 19.4 63 17.2 87 87 SSE 10 17 29.98 1015 10 16 0.00 0.00
7:52 am 07:52 Sunny 70 21.1 64 17.8 82 82 SSE 13 20 29.97 1015 10 16 0.00 0.00
8:52 am 08:52 Sunny 74 23.3 64 17.8 71 71 S 17 28 29.97 1015 10 16 0.00 0.00
9:52 am 09:52 Sunny 76 24.4 66 18.9 72 72 S 18 30 29.95 1014 10 16 0.00 0.00
10:52 am 10:52 Sunny 78 25.6 67 19.4 69 69 S 14 22 29.96 1015 10 16 0.00 0.00
11:52 am 11:52 Sunny 80 26.7 67 19.4 64 64 S 21 33 29.93 1014 10 16 0.00 0.00
12:52 pm 12:52 Sunny 83 28.3 69 20.6 63 63 S 22 35 29.91 1013 10 16 0.00 0.00
1:52 pm 13:52 Sunny 84 28.9 69 20.6 61 61 S 20 31 29.88 1012 10 16 0.00 0.00
2:52 pm 14:52 Sunny 85 29.4 68 20 57 57 S 21 33 29.87 1011 10 16 0.00 0.00
3:52 pm 15:52 Sunny 85 29.4 67 19.4 55 55 S 20 31 29.86 1011 10 16 0.00 0.00
4:52 pm 16:52 Sunny 86 30 66 18.9 51 51 S 18 30 29.85 1011 10 16 0.00 0.00
5:52 pm 17:52 Sunny 85 29.4 66 18.9 53 53 S 17 28 29.83 1010 10 16 0.00 0.00
6:52 pm 18:52 Mostly Sunny 83 28.3 66 18.9 57 57 S 16 26 29.83 1010 10 16 0.00 0.00
7:52 pm 19:52 Sunny 80 26.7 66 18.9 62 62 S 12 19 29.82 1010 10 16 0.00 0.00
8:52 pm 20:52 Clear 78 25.6 65 18.3 64 64 S 9 15 29.85 1011 10 16 0.00 0.00
9:52 pm 21:52 Clear 76 24.4 65 18.3 69 69 S 13 20 29.85 1011 10 16 0.00 0.00
10:52 pm 22:52 Clear 75 23.9 65 18.3 71 71 S 13 20 29.86 1011 10 16 0.00 0.00
11:52 pm 23:52 Clear 74 23.3 65 18.3 74 74 S 13 20 29.85 1011 10 16 0.00 0.00

Powered by AerisWeather